Terminal Aerodrome Forecast
Issued by NWS

Home | Current Version | Previous Version | Text Only | Print | Product List | Glossary On
Versions: 1 2 3 4 5 6 7 8 9 10 11 12 13 14 15 16 17 18 19 20 21 22 23 24 25
000
FTUS46 KMTR 290500
TAFSFO
TAF
KSFO 290529Z 2906/3012 29009KT P6SM FEW007
     FM291000 29007KT P6SM BKN008
     FM291800 29005KT P6SM SCT010
     FM292000 29022KT P6SM SKC
     FM300600 29009KT P6SM FEW008
     FM301000 29007KT P6SM BKN008=

USA.gov is the U.S. government's official web portal to all federal, state and local government web resources and services.